Location: Alfortville
(48.8058°N, 2.4204°E)
Time: 19:26:58
(UTC+00:00)

ARGOS - Pass Details

Date: 24 October 2021
Orbit: 819 x 835 km, 98.4° (Epoch: 07 December)

Event Time Altitude Azimuth Distance (km) Brightness Sun altitude
Rises 18:20:35 0° 170° (S) 3,358 6.2 -16.6°
Reaches altitude 10° 18:22:56 10° 173° (S) 2,431 5.5 -17.0°
Maximum altitude 18:28:19 71° 257° (WSW) 881 3.4 -17.9°
Drops below altitude 10° 18:33:45 10° 342° (NNW) 2,456 5.9 -18.8°
Sets 18:36:08 0° 345° (NNW) 3,396 6.6 -19.1°
